Hourly Data Report for October 06, 2017

All times are specified in Local Standard Time (LST). Add 1 hour to adjust for Daylight Saving Time where and when it is observed.

EMERSON AUTO
MANITOBA

49°00'00.000" N
97°14'15.000" W
242.00 m
5020881
71560
WEX

Download Data

Hourly Data (October 2017)
Hourly Data Report for October 6, 2017
Temp Definition
°C
Dew Point Temp Definition
°C
Rel Hum Definition
%
Wind Dir Definition
10's deg

Wind Spd Definition
km/h
Visibility Definition
km
Stn Press Definition
kPa
Hmdx Definition


Wind Chill Definition


Weather Definition


TIME
00:00 2.0 0.5 90 19 8   98.92     LegendNANA
01:00 2.6 1.2 91 18 9   98.91     LegendNANA
02:00 2.5 1.0 90 18 10   98.87     LegendNANA
03:00 3.1 1.5 89 17 8   98.81     LegendNANA
04:00 3.6 1.9 88 16 8   98.75     LegendNANA
05:00 3.4 1.9 90 17 10   98.72     LegendNANA
06:00 3.5 1.7 88 19 15   98.69     LegendNANA
07:00 2.9 1.2 88 18 7   98.62     LegendNANA
08:00 5.4 2.4 81 18 10   98.57     LegendNANA
09:00 8.3 3.6 72 17 12   98.52     LegendNANA
10:00 12.5 4.3 58 18 18   98.47     LegendNANA
11:00 14.2 2.2 44 18 22   98.41     LegendNANA
12:00 16.3 1.9 38 19 23   98.28     LegendNANA
13:00 17.3 3.7 40 19 24   98.14     LegendNANA
14:00 17.4 4.0 41 19 25   97.99     LegendNANA
15:00 18.1 3.5 38 19 20   97.86     LegendNANA
16:00 18.7 4.3 39 19 20   97.74     LegendNANA
17:00 17.2 3.7 40 19 19   97.70     LegendNANA
18:00 14.9 4.6 50 17 16   97.63     LegendNANA
19:00 13.3 4.5 55 17 21   97.58     LegendNANA
20:00 12.2 5.0 61 17 24   97.50     LegendNANA
21:00 10.9 5.0 67 17 21   97.43     LegendNANA
22:00 10.1 5.2 72 18 22   97.34     LegendNANA
23:00 9.7 5.3 74 18 22   97.24     LegendNANA

Notes on Data Quality.

Legend

  • E = Estimated
  • M = Missing
  • NA = Not Available
  • ‡ = Partner data that is not subject to review by the National Climate Archives
Date modified: